Miscellaneous Local Product
Issued by NWS North Platte, NE

Home | Current Version | Previous Version | Text Only | Print | Product List | Glossary On
Versions: 1 2 3 4 5 6 7 8 9 10 11 12 13 14 15 16 17 18 19 20 21 22 23 24 25 26 27 28 29 30 31 32 33 34 35 36 37 38 39 40 41 42 43 44 45 46 47 48 49 50
000
AXUS43 KLBF 170610
MISLBF


WESTERN AND NORTH CENTRAL NEBRASKA HOURLY WEATHER ROUNDUP
NATIONAL WEATHER SERVICE NORTH PLATTE NE
1200 AM CST WED DEC 17 2014

***STATIONS NOT REPORTING VARIABLES SUCH AS SKY/WEATHER OR
PRESSURE ARE PROVIDED BY THE NEBRASKA DEPARTMENT OF
ROADS...RAWS...AND APRS NETWORKS...AND ARE NOT UNDER
NATIONAL WEATHER SERVICE QUALITY CONTROL***

...OBSERVATIONS IN AND NEAR THE EASTERN PANHANDLE OF NEBRASKA...

CITY           SKY/WX    TMP DP  RH WIND       PRES   REMARKS
PINE RIDGE     CLOUDY    21  16  81 SE8       30.13F WCI  11
CHADRON        CLOUDY    12   8  84 W3        30.12F
ALLIANCE       CLOUDY    20  18  92 S10       30.10S WCI   9
SIDNEY         CLOUDY    22  20  92 VRB5      30.09R FOG     WCI  16
WHITECLAY        N/A     19  16  86 SE10        N/A  WCI   8
CRESCENT LAKE    N/A     19  17  91 S6          N/A  WCI  11
LISCO            N/A     22  18  85 NE5         N/A  WCI  15
BIG SPRINGS      N/A     24  23  94 SE12        N/A  WCI  13
$$

...OBSERVATIONS IN NORTH CENTRAL NEBRASKA...

CITY           SKY/WX    TMP DP  RH WIND       PRES   REMARKS
VALENTINE      CLOUDY    20  16  84 S8        30.25R WCI  10
THEDFORD       CLOUDY    20  19  94 SE3       30.23R
AINSWORTH      CLOUDY    19  17  92 E3        30.25R
O`NEILL        CLOUDY    19  18  94 CALM      30.31R
ORD            CLOUDY    19  15  84 E3        30.29S
BROKEN BOW     CLOUDY    21  18  88 SE7       30.24S WCI  12
BROWNLEE         N/A     17  14  90 CALM        N/A
SPRINGVIEW       N/A     18  15  87 CALM        N/A
BREWSTER         N/A     23  22  93 E3          N/A
ROSE             N/A     24  24 100 MISG        N/A
SARGENT          N/A     20  18  91 CALM        N/A
COMSTOCK         N/A     26  22  87 E5          N/A  WCI  20
CHAMBERS         N/A     19  15  82 CALM        N/A
$$

...OBSERVATIONS IN SOUTHWEST NEBRASKA AND FAR NORTHEAST COLORADO...

CITY           SKY/WX    TMP DP  RH WIND       PRES   REMARKS
WRAY           FAIR      23  23  99 E6        30.14S WCI  16
IMPERIAL       MOCLDY    22  19  89 SE10      30.16F WCI  11
OGALLALA       CLOUDY    25  23  93 SE8       30.15F WCI  16
NORTH PLATTE   CLOUDY    20  17  88 SE6       30.21F WCI  12
MCCOOK         CLOUDY    22  19  89 SE10      30.23F WCI  11
LEXINGTON      CLOUDY    23  19  87 SE6       30.26R WCI  15
PAXTON           N/A     23  21  93 SE5         N/A  WCI  17
BRADY            N/A     20  17  89 CALM        N/A
GOTHENBURG       N/A     20  17  88 E3          N/A
CALLAWAY         N/A     19  17  93 SE5         N/A  WCI  12
$$

...NORTH PLATTE AREA...

CITY           SKY/WX    TMP DP  RH WIND       PRES   REMARKS
AIRPORT        CLOUDY    20  17  88 SE6       30.21F WCI  12
DOWNTOWN         N/A     19  17  90 SE3         N/A
$$

...SOME WEATHER OBSERVATIONS FROM AROUND THE REGION...

CITY           SKY/WX    TMP DP  RH WIND       PRES   REMARKS
DENVER         PTCLDY    24  19  81 CALM      30.02F
LARAMIE        PTCLDY    13  10  88 S8        30.00S WCI   2
CHEYENNE       PTCLDY    22  16  78 SW6       29.99S WCI  14
SCOTTSBLUFF    MOCLDY    16  13  88 E13       30.08F WCI   2
RAPID CITY     CLOUDY    18  16  92 SE12      30.14F WCI   5
PIERRE         CLOUDY    18  13  80 E7        30.31S WCI   9
WINNER         CLOUDY    20  15  81 SE5       30.30R WCI  13
SIOUX FALLS    PTCLDY     7   4  87 W3        30.33S
OMAHA          PTCLDY    18  14  84 N9        30.38R WCI   7
GRAND ISLAND   CLOUDY    20  16  84 NE6       30.31F WCI  12
KANSAS CITY    CLOUDY    26  20  77 N5        30.34F WCI  20
WICHITA        MOCLDY    30  22  72 NE8       30.30F WCI  22
HAYS           CLOUDY    25  16  68 E9        30.28S WCI  15
LIBERAL        CLOUDY    36  19  51 SE10      30.17S WCI  28
GOODLAND       PTCLDY    23  21  92 SE15      30.14F WCI  10
$$



USA.gov is the U.S. government's official web portal to all federal, state and local government web resources and services.